Terminal Aerodrome Forecast
Issued by NWS

Home | Current Version | Previous Version | Text Only | Print | Product List | Glossary On
Versions: 1 2 3 4 5 6 7 8 9 10 11 12 13 14 15 16 17
000
FTUS43 KDLH 151736
TAFBRD
TAF
KBRD 151736Z 1518/1618 34013KT P6SM SCT025 BKN090
      TEMPO 1518/1522 3SM -SHSN BKN025
     FM160100 34011KT P6SM VCSH SCT025 BKN050
     FM160500 34006KT P6SM SCT025 BKN050
     FM161500 32005KT P6SM SCT050=

USA.gov is the U.S. government's official web portal to all federal, state and local government web resources and services.